Please be sure to check the latest weather conditions by clicking the link and viewing our local weather information!

Check Weather

Welcome to Lakeway Airpark (3R9)

FromTheAir

We’re a community airpark nestled within the town of Lakeway, Texas (17 miles northwest of downtown Austin).

Lakeway Airpark, Inc. was formed by Lakeway residents and interested parties to own and manage Lakeway Airpark (3R9).

The Airpark is a privately owned not for profit public use airport for residents and guests of Lakeway. No public funds are used and the airport is supported by fees and fuel sales at the airport.

Lakeway Airpark is an unmanned facility open for use from Sunrise to Sunset seven days a week. Takeoffs and landings are not permitted at night, between Sunset and Sunrise, by City Ordinance.

Quick Weather Info

Available data for KAUS from the past 2 hours
AUSTIN, TX
Metar
KAUS 221853Z 33008KT 2SM -RA BR OVC004 05/05 A3024 RMK AO2 SFC VIS 2 1/2 RAB48 SLP246 P0000 T00500050

18:53 UTC

Wind: 330° 8kt

Visibility: 2 SM

Sky: OVC 400 ft

Temp: 5 deg C / 41 deg F

Dewpoint: 5 deg C / 41 deg F

Pressure: 30.24 inHg

TAF
KAUS 221742Z 2218/2324 36010KT 2SM -SHRA BR OVC004 FM222100 35006KT 4SM BR VCSH OVC004 FM230200 36005KT 1SM -SHRA BR OVC003 FM231000 01004KT 1/2SM -SHRA FG OVC003